Location: Kaarina
(60.4167°N, 22.4167°E)
Time: 07:54:25
(UTC+03:00)

Cosmos 2184 Rocket - Pass Details

Date: 24 August 2019
Orbit: 958 x 1003 km, 82.9° (Epoch: 16 September)

Event Time Altitude Azimuth Distance (km) Brightness Sun altitude
Rises 22:59:38 0° 346° (NNW) 3,665 8.3 -12.4°
Reaches altitude 10° 23:02:09 10° 345° (NNW) 2,711 7.5 -12.6°
Maximum altitude 23:08:21 82° 259° (W) 978 4.0 -13.1°
Enters shadow 23:13:46 14° 174° (S) 2,415 5.5 -13.5°
